Year,Month,Day,Hour,Minute,Value (Times are PST for temperature in C)
2016,08,12,00,00,21.20
2016,08,12,00,01,21.20
2016,08,12,00,02,21.20
2016,08,12,00,03,21.10
2016,08,12,00,04,21.10
2016,08,12,00,05,21.10
2016,08,12,00,06,21.10
2016,08,12,00,07,21.10
2016,08,12,00,08,21.10
2016,08,12,00,09,21.10
2016,08,12,00,10,21.10
2016,08,12,00,11,21.10
2016,08,12,00,12,21.10
2016,08,12,00,13,21.10
2016,08,12,00,14,21.10
2016,08,12,00,15,21.10
2016,08,12,00,16,21.10
2016,08,12,00,17,21.10
2016,08,12,00,18,21.10
2016,08,12,00,19,21.10
2016,08,12,00,20,21.10
2016,08,12,00,21,21.10
2016,08,12,00,22,21.00
2016,08,12,00,23,21.00
2016,08,12,00,24,20.90
2016,08,12,00,25,20.90
2016,08,12,00,26,20.90
2016,08,12,00,27,20.90
2016,08,12,00,28,20.80
2016,08,12,00,29,20.80
2016,08,12,00,30,20.80
2016,08,12,00,31,20.80
2016,08,12,00,32,20.80
2016,08,12,00,33,20.70
2016,08,12,00,34,20.70
2016,08,12,00,35,20.70
2016,08,12,00,36,20.70
2016,08,12,00,37,20.70
2016,08,12,00,38,20.60
2016,08,12,00,39,20.60
2016,08,12,00,40,20.60
2016,08,12,00,41,20.60
2016,08,12,00,42,20.60
2016,08,12,00,43,20.60
2016,08,12,00,44,20.60
2016,08,12,00,45,20.60
2016,08,12,00,46,20.60
2016,08,12,00,47,20.60
2016,08,12,00,48,20.50
2016,08,12,00,49,20.50
2016,08,12,00,50,20.50
2016,08,12,00,51,20.50
2016,08,12,00,52,20.50
2016,08,12,00,53,20.50
2016,08,12,00,54,20.40
2016,08,12,00,55,20.40
2016,08,12,00,56,20.40
2016,08,12,00,57,20.40
2016,08,12,00,58,20.40
2016,08,12,00,59,20.40
2016,08,12,01,00,20.30
2016,08,12,01,01,20.30
2016,08,12,01,02,20.30
2016,08,12,01,03,20.30
2016,08,12,01,04,20.30
2016,08,12,01,05,20.30
2016,08,12,01,06,20.30
2016,08,12,01,07,20.30
2016,08,12,01,08,20.30
2016,08,12,01,09,20.30
2016,08,12,01,10,20.20
2016,08,12,01,11,20.20
2016,08,12,01,12,20.20
2016,08,12,01,13,20.20
2016,08,12,01,14,20.20
2016,08,12,01,15,20.10
2016,08,12,01,16,20.10
2016,08,12,01,17,20.10
2016,08,12,01,18,20.10
2016,08,12,01,19,20.10
2016,08,12,01,20,20.10
2016,08,12,01,21,20.00
2016,08,12,01,22,20.00
2016,08,12,01,23,20.00
2016,08,12,01,24,20.00
2016,08,12,01,25,19.90
2016,08,12,01,26,20.00
2016,08,12,01,27,19.90
2016,08,12,01,28,19.90
2016,08,12,01,29,19.90
2016,08,12,01,30,19.90
2016,08,12,01,31,19.90
2016,08,12,01,32,19.90
2016,08,12,01,33,19.90
2016,08,12,01,34,19.90
2016,08,12,01,35,19.80
2016,08,12,01,36,19.80
2016,08,12,01,37,19.80
2016,08,12,01,38,19.80
2016,08,12,01,39,19.80
2016,08,12,01,40,19.80
2016,08,12,01,41,19.80
2016,08,12,01,42,19.80
2016,08,12,01,43,19.80
2016,08,12,01,44,19.80
2016,08,12,01,45,19.80
2016,08,12,01,46,19.70
2016,08,12,01,47,19.70
2016,08,12,01,48,19.70
2016,08,12,01,49,19.70
2016,08,12,01,50,19.70
2016,08,12,01,51,19.70
2016,08,12,01,52,19.70
2016,08,12,01,53,19.70
2016,08,12,01,54,19.70
2016,08,12,01,55,19.70
2016,08,12,01,56,19.70
2016,08,12,01,57,19.60
2016,08,12,01,58,19.60
2016,08,12,01,59,19.60
2016,08,12,02,00,19.60
2016,08,12,02,01,19.60
2016,08,12,02,02,19.60
2016,08,12,02,03,19.60
2016,08,12,02,04,19.60
2016,08,12,02,05,19.60
2016,08,12,02,06,19.60
2016,08,12,02,07,19.60
2016,08,12,02,08,19.60
2016,08,12,02,09,19.60
2016,08,12,02,10,19.60
2016,08,12,02,11,19.50
2016,08,12,02,12,19.50
2016,08,12,02,13,19.50
2016,08,12,02,14,19.50
2016,08,12,02,15,19.50
2016,08,12,02,16,19.50
2016,08,12,02,17,19.50
2016,08,12,02,18,19.40
2016,08,12,02,19,19.40
2016,08,12,02,20,19.40
2016,08,12,02,21,19.50
2016,08,12,02,22,19.50
2016,08,12,02,23,19.50
2016,08,12,02,24,19.50
2016,08,12,02,25,19.40
2016,08,12,02,26,19.40
2016,08,12,02,27,19.40
2016,08,12,02,28,19.40
2016,08,12,02,29,19.40
2016,08,12,02,30,19.40
2016,08,12,02,31,19.30
2016,08,12,02,32,19.30
2016,08,12,02,33,19.30
2016,08,12,02,34,19.30
2016,08,12,02,35,19.30
2016,08,12,02,36,19.20
2016,08,12,02,37,19.20
2016,08,12,02,38,19.20
2016,08,12,02,39,19.20
2016,08,12,02,40,19.20
2016,08,12,02,41,19.10
2016,08,12,02,42,19.10
2016,08,12,02,43,19.10
2016,08,12,02,44,19.10
2016,08,12,02,45,19.10
2016,08,12,02,46,19.10
2016,08,12,02,47,19.00
2016,08,12,02,48,19.00
2016,08,12,02,49,19.00
2016,08,12,02,50,19.00
2016,08,12,02,51,19.00
2016,08,12,02,52,18.90
2016,08,12,02,53,18.90
2016,08,12,02,54,18.90
2016,08,12,02,55,18.90
2016,08,12,02,56,18.90
2016,08,12,02,57,18.90
2016,08,12,02,58,18.90
2016,08,12,02,59,18.80
2016,08,12,03,00,18.80
2016,08,12,03,01,18.80
2016,08,12,03,02,18.80
2016,08,12,03,03,18.80
2016,08,12,03,04,18.80
2016,08,12,03,05,18.80
2016,08,12,03,06,18.80
2016,08,12,03,07,18.70
2016,08,12,03,08,18.70
2016,08,12,03,09,18.70
2016,08,12,03,10,18.70
2016,08,12,03,11,18.70
2016,08,12,03,12,18.70
2016,08,12,03,13,18.70
2016,08,12,03,14,18.70
2016,08,12,03,15,18.70
2016,08,12,03,16,18.70
2016,08,12,03,17,18.60
2016,08,12,03,18,18.60
2016,08,12,03,19,18.60
2016,08,12,03,20,18.60
2016,08,12,03,21,18.60
2016,08,12,03,22,18.60
2016,08,12,03,23,18.60
2016,08,12,03,24,18.60
2016,08,12,03,25,18.50
2016,08,12,03,26,18.50
2016,08,12,03,27,18.50
2016,08,12,03,28,18.40
2016,08,12,03,29,18.40
2016,08,12,03,30,18.40
2016,08,12,03,31,18.40
2016,08,12,03,32,18.40
2016,08,12,03,33,18.30
2016,08,12,03,34,18.30
2016,08,12,03,35,18.30
2016,08,12,03,36,18.30
2016,08,12,03,37,18.30
2016,08,12,03,38,18.30
2016,08,12,03,39,18.30
2016,08,12,03,40,18.20
2016,08,12,03,41,18.20
2016,08,12,03,42,18.20
2016,08,12,03,43,18.20
2016,08,12,03,44,18.20
2016,08,12,03,45,18.20
2016,08,12,03,46,18.20
2016,08,12,03,47,18.20
2016,08,12,03,48,18.20
2016,08,12,03,49,18.10
2016,08,12,03,50,18.10
2016,08,12,03,51,18.10
2016,08,12,03,52,18.10
2016,08,12,03,53,18.10
2016,08,12,03,54,18.10
2016,08,12,03,55,18.10
2016,08,12,03,56,18.10
2016,08,12,03,57,18.10
2016,08,12,03,58,18.10
2016,08,12,03,59,18.10
2016,08,12,04,00,18.10
2016,08,12,04,01,18.10
2016,08,12,04,02,18.10
2016,08,12,04,03,18.10
2016,08,12,04,04,18.10
2016,08,12,04,05,18.10
2016,08,12,04,06,18.10
2016,08,12,04,07,18.10
2016,08,12,04,08,18.10
2016,08,12,04,09,18.10
2016,08,12,04,10,18.10
2016,08,12,04,11,18.10
2016,08,12,04,12,18.10
2016,08,12,04,13,18.10
2016,08,12,04,14,18.10
2016,08,12,04,15,18.00
2016,08,12,04,16,18.00
2016,08,12,04,17,18.00
2016,08,12,04,18,18.00
2016,08,12,04,19,17.90
2016,08,12,04,20,17.90
2016,08,12,04,21,17.90
2016,08,12,04,22,17.90
2016,08,12,04,23,17.90
2016,08,12,04,24,17.90
2016,08,12,04,25,17.80
2016,08,12,04,26,17.80
2016,08,12,04,27,17.80
2016,08,12,04,28,17.80
2016,08,12,04,29,17.80
2016,08,12,04,30,17.80
2016,08,12,04,31,17.80
2016,08,12,04,32,17.80
2016,08,12,04,33,17.80
2016,08,12,04,34,17.80
2016,08,12,04,35,17.80
2016,08,12,04,36,17.80
2016,08,12,04,37,17.70
2016,08,12,04,38,17.70
2016,08,12,04,39,17.70
2016,08,12,04,40,17.70
2016,08,12,04,41,17.70
2016,08,12,04,42,17.70
2016,08,12,04,43,17.70
2016,08,12,04,44,17.70
2016,08,12,04,45,17.60
2016,08,12,04,46,17.60
2016,08,12,04,47,17.60
2016,08,12,04,48,17.60
2016,08,12,04,49,17.60
2016,08,12,04,50,17.60
2016,08,12,04,51,17.50
2016,08,12,04,52,17.50
2016,08,12,04,53,17.50
2016,08,12,04,54,17.50
2016,08,12,04,55,17.50
2016,08,12,04,56,17.50
2016,08,12,04,57,17.50
2016,08,12,04,58,17.50
2016,08,12,04,59,17.50
2016,08,12,05,00,17.60
2016,08,12,05,01,17.60
2016,08,12,05,02,17.60
2016,08,12,05,03,17.60
2016,08,12,05,04,17.60
2016,08,12,05,05,17.60
2016,08,12,05,06,17.60
2016,08,12,05,07,17.60
2016,08,12,05,08,17.60
2016,08,12,05,09,17.60
2016,08,12,05,10,17.60
2016,08,12,05,11,17.60
2016,08,12,05,12,17.60
2016,08,12,05,13,17.60
2016,08,12,05,14,17.70
2016,08,12,05,15,17.70
2016,08,12,05,16,17.70
2016,08,12,05,17,17.70
2016,08,12,05,18,17.70
2016,08,12,05,19,17.70
2016,08,12,05,20,17.70
2016,08,12,05,21,17.70
2016,08,12,05,22,17.70
2016,08,12,05,23,17.70
2016,08,12,05,24,17.70
2016,08,12,05,25,17.70
2016,08,12,05,26,17.70
2016,08,12,05,27,17.70
2016,08,12,05,28,17.60
2016,08,12,05,29,17.60
2016,08,12,05,30,17.60
2016,08,12,05,31,17.60
2016,08,12,05,32,17.60
2016,08,12,05,33,17.60
2016,08,12,05,34,17.60
2016,08,12,05,35,17.60
2016,08,12,05,36,17.60
2016,08,12,05,37,17.60
2016,08,12,05,38,17.60
2016,08,12,05,39,17.60
2016,08,12,05,40,17.50
2016,08,12,05,41,17.50
2016,08,12,05,42,17.50
2016,08,12,05,43,17.50
2016,08,12,05,44,17.50
2016,08,12,05,45,17.50
2016,08,12,05,46,17.50
2016,08,12,05,47,17.50
2016,08,12,05,48,17.50
2016,08,12,05,49,17.50
2016,08,12,05,50,17.50
2016,08,12,05,51,17.50
2016,08,12,05,52,17.50
2016,08,12,05,53,17.50
2016,08,12,05,54,17.50
2016,08,12,05,55,17.50
2016,08,12,05,56,17.40
2016,08,12,05,57,17.40
2016,08,12,05,58,17.40
2016,08,12,05,59,17.40
2016,08,12,06,00,17.40
2016,08,12,06,01,17.40
2016,08,12,06,02,17.40
2016,08,12,06,03,17.40
2016,08,12,06,04,17.40
2016,08,12,06,05,17.40
2016,08,12,06,06,17.40
2016,08,12,06,07,17.40
2016,08,12,06,08,17.30
2016,08,12,06,09,17.30
2016,08,12,06,10,17.30
2016,08,12,06,11,17.30
2016,08,12,06,12,17.30
2016,08,12,06,13,17.30
2016,08,12,06,14,17.30
2016,08,12,06,15,17.30
2016,08,12,06,16,17.30
2016,08,12,06,17,17.40
2016,08,12,06,18,17.40
2016,08,12,06,19,17.40
2016,08,12,06,20,17.40
2016,08,12,06,21,17.40
2016,08,12,06,22,17.40
2016,08,12,06,23,17.40
2016,08,12,06,24,17.40
2016,08,12,06,25,17.40
2016,08,12,06,26,17.40
2016,08,12,06,27,17.40
2016,08,12,06,28,17.50
2016,08,12,06,29,17.50
2016,08,12,06,30,17.50
2016,08,12,06,31,17.50
2016,08,12,06,32,17.50
2016,08,12,06,33,17.50
2016,08,12,06,34,17.50
2016,08,12,06,35,17.50
2016,08,12,06,36,17.50
2016,08,12,06,37,17.50
2016,08,12,06,38,17.50
2016,08,12,06,39,17.50
2016,08,12,06,40,17.40
2016,08,12,06,41,17.50
2016,08,12,06,42,17.50
2016,08,12,06,43,17.50
2016,08,12,06,44,17.50
2016,08,12,06,45,17.50
2016,08,12,06,46,17.60
2016,08,12,06,47,17.60
2016,08,12,06,48,17.60
2016,08,12,06,49,17.60
2016,08,12,06,50,17.60
2016,08,12,06,51,17.60
2016,08,12,06,52,17.60
2016,08,12,06,53,17.70
2016,08,12,06,54,17.70
2016,08,12,06,55,17.70
2016,08,12,06,56,17.70
2016,08,12,06,57,17.70
2016,08,12,06,58,17.80
2016,08,12,06,59,17.80
2016,08,12,07,00,17.80
2016,08,12,07,01,17.80
2016,08,12,07,02,17.80
2016,08,12,07,03,17.90
2016,08,12,07,04,17.90
2016,08,12,07,05,17.90
2016,08,12,07,06,17.90
2016,08,12,07,07,18.00
2016,08,12,07,08,18.00
2016,08,12,07,09,18.00
2016,08,12,07,10,18.00
2016,08,12,07,11,18.10
2016,08,12,07,12,18.10
2016,08,12,07,13,18.10
2016,08,12,07,14,18.10
2016,08,12,07,15,18.10
2016,08,12,07,16,18.20
2016,08,12,07,17,18.20
2016,08,12,07,18,18.20
2016,08,12,07,19,18.20
2016,08,12,07,20,18.30
2016,08,12,07,21,18.30
2016,08,12,07,22,18.30
2016,08,12,07,23,18.30
2016,08,12,07,24,18.30
2016,08,12,07,25,18.40
2016,08,12,07,26,18.40
2016,08,12,07,27,18.40
2016,08,12,07,28,18.40
2016,08,12,07,29,18.50
2016,08,12,07,30,18.50
2016,08,12,07,31,18.50
2016,08,12,07,32,18.60
2016,08,12,07,33,18.60
2016,08,12,07,34,18.60
2016,08,12,07,35,18.60
2016,08,12,07,36,18.70
2016,08,12,07,37,18.70
2016,08,12,07,38,18.70
2016,08,12,07,39,18.70
2016,08,12,07,40,18.70
2016,08,12,07,41,18.80
2016,08,12,07,42,18.80
2016,08,12,07,43,18.80
2016,08,12,07,44,18.80
2016,08,12,07,45,18.80
2016,08,12,07,46,18.80
2016,08,12,07,47,18.80
2016,08,12,07,48,18.80
2016,08,12,07,49,18.80
2016,08,12,07,50,18.90
2016,08,12,07,51,18.90
2016,08,12,07,52,18.90
2016,08,12,07,53,18.90
2016,08,12,07,54,18.90
2016,08,12,07,55,18.90
2016,08,12,07,56,18.90
2016,08,12,07,57,18.90
2016,08,12,07,58,18.90
2016,08,12,07,59,19.00
2016,08,12,08,00,19.00
2016,08,12,08,01,19.00
2016,08,12,08,02,19.10
2016,08,12,08,03,19.10
2016,08,12,08,04,19.10
2016,08,12,08,05,19.10
2016,08,12,08,06,19.10
2016,08,12,08,07,19.10
2016,08,12,08,08,19.10
2016,08,12,08,09,19.20
2016,08,12,08,10,19.20
2016,08,12,08,11,19.20
2016,08,12,08,12,19.20
2016,08,12,08,13,19.20
2016,08,12,08,14,19.20
2016,08,12,08,15,19.20
2016,08,12,08,16,19.30
2016,08,12,08,17,19.30
2016,08,12,08,18,19.30
2016,08,12,08,19,19.30
2016,08,12,08,20,19.30
2016,08,12,08,21,19.40
2016,08,12,08,22,19.40
2016,08,12,08,23,19.40
2016,08,12,08,24,19.40
2016,08,12,08,25,19.40
2016,08,12,08,26,19.40
2016,08,12,08,27,19.50
2016,08,12,08,28,19.50
2016,08,12,08,29,19.60
2016,08,12,08,30,19.60
2016,08,12,08,31,19.60
2016,08,12,08,32,19.60
2016,08,12,08,33,19.60
2016,08,12,08,34,19.60
2016,08,12,08,35,19.60
2016,08,12,08,36,19.60
2016,08,12,08,37,19.60
2016,08,12,08,38,19.70
2016,08,12,08,39,19.70
2016,08,12,08,40,19.70
2016,08,12,08,41,19.80
2016,08,12,08,42,19.80
2016,08,12,08,43,19.80
2016,08,12,08,44,19.80
2016,08,12,08,45,19.80
2016,08,12,08,46,19.80
2016,08,12,08,47,19.80
2016,08,12,08,48,19.90
2016,08,12,08,49,19.90
2016,08,12,08,50,19.90
2016,08,12,08,51,19.90
2016,08,12,08,52,19.90
2016,08,12,08,53,19.90
2016,08,12,08,54,20.00
2016,08,12,08,55,20.00
2016,08,12,08,56,20.00
2016,08,12,08,57,20.00
2016,08,12,08,58,20.00
2016,08,12,08,59,20.00
2016,08,12,09,00,20.00
2016,08,12,09,01,20.00
2016,08,12,09,02,20.10
2016,08,12,09,03,20.10
2016,08,12,09,04,20.10
2016,08,12,09,05,20.00
2016,08,12,09,06,20.00
2016,08,12,09,07,20.00
2016,08,12,09,08,20.00
2016,08,12,09,09,20.00
2016,08,12,09,10,20.10
2016,08,12,09,11,20.10
2016,08,12,09,12,20.10
2016,08,12,09,13,20.20
2016,08,12,09,14,20.20
2016,08,12,09,15,20.20
2016,08,12,09,16,20.20
2016,08,12,09,17,20.30
2016,08,12,09,18,20.30
2016,08,12,09,19,20.40
2016,08,12,09,20,20.40
2016,08,12,09,21,20.40
2016,08,12,09,22,20.40
2016,08,12,09,23,20.40
2016,08,12,09,24,20.40
2016,08,12,09,25,20.40
2016,08,12,09,26,20.40
2016,08,12,09,27,20.50
2016,08,12,09,28,20.60
2016,08,12,09,29,20.60
2016,08,12,09,30,20.70
2016,08,12,09,31,20.70
2016,08,12,09,32,20.70
2016,08,12,09,33,20.60
2016,08,12,09,34,20.60
2016,08,12,09,35,20.60
2016,08,12,09,36,20.50
2016,08,12,09,37,20.40
2016,08,12,09,38,20.40
2016,08,12,09,39,20.30
2016,08,12,09,40,20.30
2016,08,12,09,41,20.20
2016,08,12,09,42,20.20
2016,08,12,09,43,20.20
2016,08,12,09,44,20.20
2016,08,12,09,45,20.30
2016,08,12,09,46,20.30
2016,08,12,09,47,20.30
2016,08,12,09,48,20.30
2016,08,12,09,49,20.30
2016,08,12,09,50,20.30
2016,08,12,09,51,20.30
2016,08,12,09,52,20.30
2016,08,12,09,53,20.30
2016,08,12,09,54,20.30
2016,08,12,09,55,20.30
2016,08,12,09,56,20.30
2016,08,12,09,57,20.30
2016,08,12,09,58,20.30
2016,08,12,09,59,20.40
2016,08,12,10,00,20.30
2016,08,12,10,01,20.30
2016,08,12,10,02,20.30
2016,08,12,10,03,20.30
2016,08,12,10,04,20.30
2016,08,12,10,05,20.30
2016,08,12,10,06,20.30
2016,08,12,10,07,20.30
2016,08,12,10,08,20.40
2016,08,12,10,09,20.40
2016,08,12,10,10,20.40
2016,08,12,10,11,20.40
2016,08,12,10,12,20.30
2016,08,12,10,13,20.30
2016,08,12,10,14,20.30
2016,08,12,10,15,20.30
2016,08,12,10,16,20.30
2016,08,12,10,17,20.30
2016,08,12,10,18,20.20
2016,08,12,10,19,20.20
2016,08,12,10,20,20.10
2016,08,12,10,21,20.10
2016,08,12,10,22,20.10
2016,08,12,10,23,20.10
2016,08,12,10,24,20.00
2016,08,12,10,25,19.90
2016,08,12,10,26,20.00
2016,08,12,10,27,20.00
2016,08,12,10,28,20.00
2016,08,12,10,29,20.00
2016,08,12,10,30,20.00
2016,08,12,10,31,19.90
2016,08,12,10,32,20.00
2016,08,12,10,33,20.10
2016,08,12,10,34,20.20
2016,08,12,10,35,20.30
2016,08,12,10,36,20.40
2016,08,12,10,37,20.50
2016,08,12,10,38,20.60
2016,08,12,10,39,20.70
2016,08,12,10,40,20.80
2016,08,12,10,41,20.80
2016,08,12,10,42,20.80
2016,08,12,10,43,20.80
2016,08,12,10,44,20.80
2016,08,12,10,45,20.70
2016,08,12,10,46,20.60
2016,08,12,10,47,20.50
2016,08,12,10,48,20.50
2016,08,12,10,49,20.40
2016,08,12,10,50,20.40
2016,08,12,10,51,20.40
2016,08,12,10,52,20.40
2016,08,12,10,53,20.50
2016,08,12,10,54,20.50
2016,08,12,10,55,20.60
2016,08,12,10,56,20.60
2016,08,12,10,57,20.60
2016,08,12,10,58,20.60
2016,08,12,10,59,20.60
2016,08,12,11,00,20.60
2016,08,12,11,01,20.60
2016,08,12,11,02,20.70
2016,08,12,11,03,20.70
2016,08,12,11,04,20.80
2016,08,12,11,05,20.80
2016,08,12,11,06,20.80
2016,08,12,11,07,20.80
2016,08,12,11,08,20.90
2016,08,12,11,09,21.00
2016,08,12,11,10,21.10
2016,08,12,11,11,21.20
2016,08,12,11,12,21.30
2016,08,12,11,13,21.40
2016,08,12,11,14,21.50
2016,08,12,11,15,21.50
2016,08,12,11,16,21.60
2016,08,12,11,17,21.60
2016,08,12,11,18,21.60
2016,08,12,11,19,21.50
2016,08,12,11,20,21.40
2016,08,12,11,21,21.40
2016,08,12,11,22,21.40
2016,08,12,11,23,21.40
2016,08,12,11,24,21.40
2016,08,12,11,25,21.20
2016,08,12,11,26,21.10
2016,08,12,11,27,21.00
2016,08,12,11,28,21.00
2016,08,12,11,29,21.00
2016,08,12,11,30,20.90
2016,08,12,11,31,20.90
2016,08,12,11,32,20.80
2016,08,12,11,33,20.80
2016,08,12,11,34,20.80
2016,08,12,11,35,20.70
2016,08,12,11,36,20.80
2016,08,12,11,37,20.90
2016,08,12,11,38,20.90
2016,08,12,11,39,20.90
2016,08,12,11,40,20.80
2016,08,12,11,41,20.80
2016,08,12,11,42,20.80
2016,08,12,11,43,20.70
2016,08,12,11,44,20.70
2016,08,12,11,45,20.70
2016,08,12,11,46,20.70
2016,08,12,11,47,20.70
2016,08,12,11,48,20.70
2016,08,12,11,49,20.70
2016,08,12,11,50,20.70
2016,08,12,11,51,20.70
2016,08,12,11,52,20.70
2016,08,12,11,53,20.70
2016,08,12,11,54,20.80
2016,08,12,11,55,20.80
2016,08,12,11,56,20.90
2016,08,12,11,57,21.00
2016,08,12,11,58,21.00
2016,08,12,11,59,21.20
2016,08,12,12,00,21.20
2016,08,12,12,01,21.20
2016,08,12,12,02,21.30
2016,08,12,12,03,21.40
2016,08,12,12,04,21.40
2016,08,12,12,05,21.40
2016,08,12,12,06,21.50
2016,08,12,12,07,21.50
2016,08,12,12,08,21.60
2016,08,12,12,09,21.60
2016,08,12,12,10,21.70
2016,08,12,12,11,21.80
2016,08,12,12,12,21.80
2016,08,12,12,13,21.90
2016,08,12,12,14,22.00
2016,08,12,12,15,22.10
2016,08,12,12,16,22.10
2016,08,12,12,17,22.20
2016,08,12,12,18,22.20
2016,08,12,12,19,22.20
2016,08,12,12,20,22.20
2016,08,12,12,21,22.30
2016,08,12,12,22,22.30
2016,08,12,12,23,22.30
2016,08,12,12,24,22.30
2016,08,12,12,25,22.30
2016,08,12,12,26,22.30
2016,08,12,12,27,22.20
2016,08,12,12,28,22.10
2016,08,12,12,29,22.10
2016,08,12,12,30,22.10
2016,08,12,12,31,22.10
2016,08,12,12,32,22.10
2016,08,12,12,33,22.10
2016,08,12,12,34,22.10
2016,08,12,12,35,22.10
2016,08,12,12,36,22.10
2016,08,12,12,37,22.10
2016,08,12,12,38,22.10
2016,08,12,12,39,22.10
2016,08,12,12,40,22.20
2016,08,12,12,41,22.30
2016,08,12,12,42,22.40
2016,08,12,12,43,22.40
2016,08,12,12,44,22.50
2016,08,12,12,45,22.50
2016,08,12,12,46,22.50
2016,08,12,12,47,22.50
2016,08,12,12,48,22.40
2016,08,12,12,49,22.30
2016,08,12,12,50,22.30
2016,08,12,12,51,22.20
2016,08,12,12,52,22.20
2016,08,12,12,53,22.30
2016,08,12,12,54,22.30
2016,08,12,12,55,22.30
2016,08,12,12,56,22.40
2016,08,12,12,57,22.40
2016,08,12,12,58,22.50
2016,08,12,12,59,22.50
2016,08,12,13,00,22.50
2016,08,12,13,01,22.60
2016,08,12,13,02,22.70
2016,08,12,13,03,22.70
2016,08,12,13,04,22.70
2016,08,12,13,05,22.80
2016,08,12,13,06,22.80
2016,08,12,13,07,22.70
2016,08,12,13,08,22.70
2016,08,12,13,09,22.70
2016,08,12,13,10,22.70
2016,08,12,13,11,22.80
2016,08,12,13,12,22.80
2016,08,12,13,13,22.80
2016,08,12,13,14,22.90
2016,08,12,13,15,23.00
2016,08,12,13,16,23.10
2016,08,12,13,17,23.20
2016,08,12,13,18,23.30
2016,08,12,13,19,23.30
2016,08,12,13,20,23.30
2016,08,12,13,21,23.20
2016,08,12,13,22,23.20
2016,08,12,13,23,23.10
2016,08,12,13,24,23.10
2016,08,12,13,25,23.10
2016,08,12,13,26,23.10
2016,08,12,13,27,23.10
2016,08,12,13,28,23.20
2016,08,12,13,29,23.20
2016,08,12,13,30,23.20
2016,08,12,13,31,23.30
2016,08,12,13,32,23.30
2016,08,12,13,33,23.40
2016,08,12,13,34,23.40
2016,08,12,13,35,23.50
2016,08,12,13,36,23.60
2016,08,12,13,37,23.80
2016,08,12,13,38,23.80
2016,08,12,13,39,23.80
2016,08,12,13,40,23.80
2016,08,12,13,41,23.80
2016,08,12,13,42,23.80
2016,08,12,13,43,23.90
2016,08,12,13,44,24.00
2016,08,12,13,45,24.10
2016,08,12,13,46,24.20
2016,08,12,13,47,24.20
2016,08,12,13,48,24.30
2016,08,12,13,49,24.20
2016,08,12,13,50,24.10
2016,08,12,13,51,24.10
2016,08,12,13,52,24.10
2016,08,12,13,53,24.00
2016,08,12,13,54,24.00
2016,08,12,13,55,23.90
2016,08,12,13,56,23.80
2016,08,12,13,57,23.80
2016,08,12,13,58,23.80
2016,08,12,13,59,23.80
2016,08,12,14,00,23.80
2016,08,12,14,01,23.80
2016,08,12,14,02,23.90
2016,08,12,14,03,23.90
2016,08,12,14,04,24.00
2016,08,12,14,05,23.90
2016,08,12,14,06,23.90
2016,08,12,14,07,24.00
2016,08,12,14,08,24.10
2016,08,12,14,09,24.10
2016,08,12,14,10,24.10
2016,08,12,14,11,24.10
2016,08,12,14,12,24.10
2016,08,12,14,13,24.10
2016,08,12,14,14,24.20
2016,08,12,14,15,24.20
2016,08,12,14,16,24.20
2016,08,12,14,17,24.20
2016,08,12,14,18,24.30
2016,08,12,14,19,24.50
2016,08,12,14,20,24.60
2016,08,12,14,21,24.80
2016,08,12,14,22,25.00
2016,08,12,14,23,25.10
2016,08,12,14,24,25.10
2016,08,12,14,25,25.10
2016,08,12,14,26,25.10
2016,08,12,14,27,25.00
2016,08,12,14,28,25.10
2016,08,12,14,29,25.10
2016,08,12,14,30,25.20
2016,08,12,14,31,25.30
2016,08,12,14,32,25.30
2016,08,12,14,33,25.30
2016,08,12,14,34,25.30
2016,08,12,14,35,25.30
2016,08,12,14,36,25.30
2016,08,12,14,37,25.30
2016,08,12,14,38,25.30
2016,08,12,14,39,25.20
2016,08,12,14,40,25.20
2016,08,12,14,41,25.20
2016,08,12,14,42,25.10
2016,08,12,14,43,25.20
2016,08,12,14,44,25.30
2016,08,12,14,45,25.30
2016,08,12,14,46,25.30
2016,08,12,14,47,25.30
2016,08,12,14,48,25.40
2016,08,12,14,49,25.50
2016,08,12,14,50,25.60
2016,08,12,14,51,25.70
2016,08,12,14,52,25.80
2016,08,12,14,53,25.80
2016,08,12,14,54,25.90
2016,08,12,14,55,25.90
2016,08,12,14,56,25.90
2016,08,12,14,57,25.90
2016,08,12,14,58,25.90
2016,08,12,14,59,25.90
2016,08,12,15,00,25.80
2016,08,12,15,01,25.80
2016,08,12,15,02,25.80
2016,08,12,15,03,25.90
2016,08,12,15,04,25.90
2016,08,12,15,05,25.90
2016,08,12,15,06,25.90
2016,08,12,15,07,25.90
2016,08,12,15,08,25.80
2016,08,12,15,09,25.80
2016,08,12,15,10,25.80
2016,08,12,15,11,25.80
2016,08,12,15,12,25.90
2016,08,12,15,13,25.90
2016,08,12,15,14,26.00
2016,08,12,15,15,26.10
2016,08,12,15,16,26.10
2016,08,12,15,17,26.10
2016,08,12,15,18,26.10
2016,08,12,15,19,26.10
2016,08,12,15,20,26.10
2016,08,12,15,21,26.10
2016,08,12,15,22,26.10
2016,08,12,15,23,26.10
2016,08,12,15,24,26.10
2016,08,12,15,25,26.10
2016,08,12,15,26,26.20
2016,08,12,15,27,26.20
2016,08,12,15,28,26.20
2016,08,12,15,29,26.20
2016,08,12,15,30,26.20
2016,08,12,15,31,26.20
2016,08,12,15,32,26.20
2016,08,12,15,33,26.20
2016,08,12,15,34,26.20
2016,08,12,15,35,26.20
2016,08,12,15,36,26.20
2016,08,12,15,37,26.20
2016,08,12,15,38,26.20
2016,08,12,15,39,26.30
2016,08,12,15,40,26.40
2016,08,12,15,41,26.50
2016,08,12,15,42,26.60
2016,08,12,15,43,26.60
2016,08,12,15,44,26.60
2016,08,12,15,45,26.60
2016,08,12,15,46,26.60
2016,08,12,15,47,26.60
2016,08,12,15,48,26.60
2016,08,12,15,49,26.50
2016,08,12,15,50,26.50
2016,08,12,15,51,26.50
2016,08,12,15,52,26.50
2016,08,12,15,53,26.50
2016,08,12,15,54,26.50
2016,08,12,15,55,26.50
2016,08,12,15,56,26.50
2016,08,12,15,57,26.50
2016,08,12,15,58,26.50
2016,08,12,15,59,26.50
2016,08,12,16,00,26.50
2016,08,12,16,01,26.50
2016,08,12,16,02,26.50
2016,08,12,16,03,26.40
2016,08,12,16,04,26.40
2016,08,12,16,05,26.40
2016,08,12,16,06,26.40
2016,08,12,16,07,26.40
2016,08,12,16,08,26.40
2016,08,12,16,09,26.50
2016,08,12,16,10,26.50
2016,08,12,16,11,26.50
2016,08,12,16,12,26.50
2016,08,12,16,13,26.50
2016,08,12,16,14,26.60
2016,08,12,16,15,26.70
2016,08,12,16,16,26.70
2016,08,12,16,17,26.80
2016,08,12,16,18,26.80
2016,08,12,16,19,26.90
2016,08,12,16,20,26.90
2016,08,12,16,21,26.90
2016,08,12,16,22,26.90
2016,08,12,16,23,26.90
2016,08,12,16,24,26.90
2016,08,12,16,25,26.90
2016,08,12,16,26,26.90
2016,08,12,16,27,26.90
2016,08,12,16,28,26.90
2016,08,12,16,29,26.90
2016,08,12,16,30,26.90
2016,08,12,16,31,27.00
2016,08,12,16,32,27.00
2016,08,12,16,33,27.10
2016,08,12,16,34,27.20
2016,08,12,16,35,27.30
2016,08,12,16,36,27.30
2016,08,12,16,37,27.30
2016,08,12,16,38,27.30
2016,08,12,16,39,27.40
2016,08,12,16,40,27.40
2016,08,12,16,41,27.50
2016,08,12,16,42,27.50
2016,08,12,16,43,27.50
2016,08,12,16,44,27.60
2016,08,12,16,45,27.60
2016,08,12,16,46,27.60
2016,08,12,16,47,27.50
2016,08,12,16,48,27.40
2016,08,12,16,49,27.40
2016,08,12,16,50,27.30
2016,08,12,16,51,27.20
2016,08,12,16,52,27.20
2016,08,12,16,53,27.10
2016,08,12,16,54,27.00
2016,08,12,16,55,26.90
2016,08,12,16,56,26.90
2016,08,12,16,57,27.00
2016,08,12,16,58,27.00
2016,08,12,16,59,27.10
2016,08,12,17,00,27.20
2016,08,12,17,01,27.20
2016,08,12,17,02,27.10
2016,08,12,17,03,27.10
2016,08,12,17,04,27.10
2016,08,12,17,05,27.10
2016,08,12,17,06,27.10
2016,08,12,17,07,27.10
2016,08,12,17,08,27.10
2016,08,12,17,09,27.10
2016,08,12,17,10,27.10
2016,08,12,17,11,27.10
2016,08,12,17,12,27.20
2016,08,12,17,13,27.20
2016,08,12,17,14,27.10
2016,08,12,17,15,27.10
2016,08,12,17,16,27.10
2016,08,12,17,17,27.00
2016,08,12,17,18,27.00
2016,08,12,17,19,27.10